Regional Weather Roundup
Issued by NWS

Home | Current Version | Previous Version | Graphics & Text | Print | Product List | Glossary On
Versions: 1 2 3 4 5 6 7 8 9 10 11 12 13 14 15 16 17 18 19 20 21 22 23 24 25 26 27 28 29 30 31 32 33 34 35 36 37 38 39 40 41 42 43 44 45 46 47 48 49 50
000
ASUS43 KFSD 050010
RWRSD

WEATHER ROUNDUP FOR SOUTH DAKOTA
NATIONAL WEATHER SERVICE SIOUX FALLS SD
700 PM CDT MON MAY 04 2015

NOTE: "FAIR" INDICATES FEW OR NO CLOUDS BELOW 12,000 FEET WITH NO
SIGNIFICANT WEATHER AND/OR OBSTRUCTIONS TO VISIBILITY.


SDZ001>005-009-010-012>017-050100-
NORTHWEST AND NORTH CENTRAL SOUTH DAKOTA

CITY           SKY/WX    TMP DP  RH WIND       PRES   REMARKS
BUFFALO          N/A     56  31  38 SE28G35   30.02F
FAITH            N/A     51  40  65 E12       30.13F
MOBRIDGE       CLOUDY    66  24  20 S9        30.12F
$$

SDZ012>016-024>037-041>051-057-063-072>074-050100-
SOUTHWEST AND SOUTH CENTRAL SOUTH DAKOTA

CITY           SKY/WX    TMP DP  RH WIND       PRES   REMARKS
RAPID CTY ARPT MOSUNNY   59  32  36 SE22G28   30.11F
PIERRE         CLOUDY    66  23  19 NE14      30.12F
CUSTER         CLOUDY    45  35  68 SE8G17    30.15S
ELLSWORTH AFB  PTSUNNY   59  31  34 SE21      30.10F
PHILIP         CLOUDY    65  25  22 E16G24    30.11F
PINE RIDGE     LGT RAIN  57  36  45 E7        30.12F
SPEARFISH      FAIR      57  39  51 SE22      30.06S
WINNER         LGT RAIN  67  25  20 E9        30.11F
$$

SDZ004>011-016>023-039-040-050100-
NORTHEAST SOUTH DAKOTA

CITY           SKY/WX    TMP DP  RH WIND       PRES   REMARKS
ABERDEEN       CLOUDY    67  27  22 E7        30.15F
WATERTOWN      CLOUDY    67  24  19 NE10      30.16F
BROOKINGS      CLOUDY    70  27  19 E9        30.15S
SISSETON         N/A     69  22  16 SE6       30.16S
$$

SDZ017-020-022-023-036>040-048>070-050100-
SOUTHEAST SOUTH DAKOTA

CITY           SKY/WX    TMP DP  RH WIND       PRES   REMARKS
SIOUX FALLS    CLOUDY    69  29  22 SE15      30.12F
HURON          PTSUNNY   70  25  18 SE12      30.12F
CHAMBERLAIN    CLOUDY    68  25  19 E10       30.11F
MITCHELL       CLOUDY    72  26  18 SE12      30.11F
YANKTON        CLOUDY    64  41  42 SE8       30.09F
$$

ABBREVIATIONS USED IN REMARKS
   TC - TEMPERATURE IN CELSIUS
  WCI - WIND CHILL INDEX
   HX - HEAT INDEX
  VSB - VISIBILITY



USA.gov is the U.S. government's official web portal to all federal, state and local government web resources and services.